Regional Weather Roundup
Issued by NWS Cleveland, OH

Home | Current Version | Previous Version | Graphics & Text | Print | Product List | Glossary On
Versions: 1 2 3 4 5 6 7 8 9 10 11 12 13 14 15 16 17 18 19 20 21 22 23 24 25 26 27 28 29 30 31 32 33 34 35 36 37 38 39 40 41 42 43 44 45 46 47 48 49 50
000
ASUS41 KCLE 241010
RWRCLE
OHIO REGIONAL WEATHER ROUNDUP
NATIONAL WEATHER SERVICE CLEVELAND, OH
500 AM EST MON NOV 24 2014

NOTE: "FAIR" INDICATES FEW OR NO CLOUDS BELOW 12,000 FEET WITH NO
SIGNIFICANT WEATHER AND/OR OBSTRUCTIONS TO VISIBILITY.

OHZ001>008-015>018-024>027-034-035-043-044-241100-
   NORTHWEST OHIO

CITY           SKY/WX    TMP DP  RH WIND       PRES   REMARKS
DEFIANCE       CLOUDY    55  53  93 SW14G26   29.18R
FINDLAY        CLOUDY    59  54  83 SW22G35   29.21R
TOLEDO EXPRESS LGT RAIN  56  53  90 SW21G35   29.16R FOG
TOLEDO EXEC    CLOUDY    57  53  86 SW21G31   29.17R
LIMA           LGT RAIN  58  32  37 SW17G28   29.23R
$$

OHZ009>014-019>023-028>033-038-089-241100-
   NORTHEAST OHIO

CITY           SKY/WX    TMP DP  RH WIND       PRES   REMARKS
CLE-HOPKINS    CLOUDY    58  53  84 S16G32    29.27R
CLE-LAKEFRONT  CLOUDY    59  54  83 S21G33    29.23R
CUY CO. ARPT   NOT AVBL
LORAIN-ELYRIA  LGT RAIN  58  53  84 SW25G37   29.24R
ASHTABULA      CLOUDY    57  53  86 S18G31    29.28R
AKRON-CANTON   CLOUDY    58  53  84 SW23G30   29.33R
WOOSTER        LGT RAIN N/A N/A N/A SW20G30   29.31R
MANSFIELD      CLOUDY    57  54  89 S33G39    29.29R
YOUNGSTOWN     LGT RAIN  58  53  84 S21G31    29.33R
$$

OHZ042-051>053-060>062-070>072-077>081-241100-
  SOUTHWEST OHIO

CITY           SKY/WX    TMP DP  RH WIND       PRES   REMARKS
CINC-COVINGTON CLOUDY    60  53  77 S14       29.34S
CINC-LUNKEN    CLOUDY    60  55  83 S14G24    29.35S
HAMILTON       CLOUDY    60  56  86 S12G23    29.33S
DAYTON         MOCLDY    59  55  87 S18G25    29.30S
WRIGHT-PAT AFB MOCLDY    59  55  87 S20G25    29.31S
DAYTON GENERAL CLOUDY    59  55  87 SW18G26   29.32S
WILMINGTON     MOCLDY    58  54  86 S22G28    29.34S
$$

OHZ036-037-039>041-045>050-054>059-063>069-073>076-082>088-241100-
  CENTRAL AND SOUTHEAST OHIO

CITY           SKY/WX    TMP DP  RH WIND       PRES   REMARKS
COLUMBUS       CLOUDY    58  54  86 S13G23    29.35R
OSU AIRPORT    MOCLDY    58  54  86 S17G25    29.33R
BOLTON FIELD   CLOUDY    58  55  91 S22       29.36R
RICKENBACK AFB CLOUDY    57  55  92 S22       29.36R
NEWARK         CLOUDY    59  53  80 S12       29.36R
MARION         CLOUDY    58  53  84 SW20G29   29.29R
LANCASTER      LGT RAIN  60  54  80 S15G24    29.38R
ZANESVILLE     CLOUDY    58  53  84 S14       29.40R
NEW PHILLY     CLOUDY    61  53  75 SW16G30   29.39R
$$


USA.gov is the U.S. government's official web portal to all federal, state and local government web resources and services.